[keps] orb12194.2l.amsat

Ray Hoad ray.hoad at mypbmail.com
Thu Jul 12 21:40:51 PDT 2012


SB KEPS @ AMSAT  $ORB12194.N
2Line Orbital Elements 12194.AMSAT

HR AMSAT ORBITAL ELEMENTS FOR AMATEUR SATELLITES IN NASA FORMAT
FROM WA5QGD FORT WORTH,TX July 12, 2012
Send SUBSCRIBE KEPS/UNSUBSCRIBE KEPS to majordomo at amsat.org only
BID: ORB12194.N

DECODE 2-LINE ELSETS WITH THE FOLLOWING KEY:
1 AAAAAU 00  0  0 BBBBB.BBBBBBBB  .CCCCCCCC  00000-0  00000-0 0  DDDZ
2 AAAAA EEE.EEEE FFF.FFFF GGGGGGG HHH.HHHH III.IIII JJ.JJJJJJJJKKKKKZ
KEY: A-CATALOGNUM B-EPOCHTIME C-DECAY D-ELSETNUM E-INCLINATION F-RAAN
G-ECCENTRICITY H-ARGPERIGEE I-MNANOM J-MNMOTION K-ORBITNUM Z-CHECKSUM

TO ALL RADIO AMATEURS BT

AO-07
1 07530U 74089B   12194.60327822 -.00000027  00000-0  10000-3 0  4281
2 07530 101.4036 190.8338 0011577 232.8870 127.1141 12.53590157723237
FO-29
1 24278U 96046B   12193.95805674  .00000005  00000-0  43477-4 0 08867
2 24278 098.5875 291.3723 0350353 325.3446 032.5305 13.52984864785301
SO-33
1 25509U 98061B   12192.39712066  .00000310  00000-0  51533-4 0 02745
2 25509 031.4308 202.3369 0351839 046.3830 316.5434 14.28786688715973
RS-22
1 27939U 03042A   12194.76318004  .00000610  00000-0  12453-3 0  5312
2 27939 097.8119 034.2654 0013518 179.1610 180.9620 14.64064834469627
VO-52
1 28650U 05017B   12193.81710304  .00001166  00000-0  14888-3 0 01521
2 28650 097.5968 223.5668 0025518 322.7160 037.2256 14.83036592388624
HO-68
1 36122U 09072B   12194.90596312 -.00000044  00000-0  00000 0 0  6382
2 36122 100.3600 253.7329 0007809 053.2773 306.9057 13.16296647123773
UO-11
1 14781U 84021B   12194.80385029  .00000714  00000-0  10013-3 0  9189
2 14781 097.9530 254.0992 0008209 316.6046 043.4519 14.80490196523729
AO-16
1 20439U 90005D   12194.93917522  .00000136  00000-0  66270-4 0  5099
2 20439 098.4320 137.5935 0011863 081.9661 278.2859 14.32065215173684
LO-19
1 20442U 90005G   12194.81855364  .00000212  00000-0  94118-4 0  4372
2 20442 098.3965 140.3916 0012867 075.3939 284.8672 14.32283327173854
AO-27
1 22825U 93061C   12193.88451976  .00000145  00000-0  73861-4 0  1476
2 22825 098.5741 136.3151 0007991 201.5735 158.5107 14.29470338980009
IO-26
1 22826U 93061D   12193.88066270  .00000057  00000-0  39017-4 0 09123
2 22826 098.5692 136.6763 0008391 196.5388 163.5522 14.29744529980136
GO-32
1 25397U 98043D   12193.65120924 -.00000072  00000-0 -13542-4 0 08220
2 25397 098.3647 171.1581 0001172 165.9539 194.1658 14.23281743727508
NO-44
1 26931U 01043C   12193.87342424 -.00000162  00000-0 -30808-4 0   859
2 26931 067.0515 056.7172 0007517 259.1394 100.8823 14.29810230562777
SO-50
1 27607U 02058C   12193.62085904  .00000494  00000-0  95446-4 0  8096
2 27607 064.5564 220.5701 0081821 243.7296 115.5394 14.72426428513562
CO-55
1 27844U 03031E   12194.55131188  .00000191  00000-0  10816-3 0  4165
2 27844 098.7024 202.5605 0010030 144.3965 215.7891 14.21040922468492
CO-57
1 27848U 03031J   12193.50306051  .00000144  00000-0  87036-4 0 03656
2 27848 098.7105 200.8715 0009901 151.7470 208.4255 14.20789791468280
AO-51
1 28375U 04025K   12194.91125398  .00000126  00000-0  50719-4 0  3147
2 28375 098.1497 158.9926 0083865 323.8947 035.6618 14.40963301422470
CP3
1 31129U 07012N   12194.56068100  .00001082  00000-0  25446-3 0  2111
2 31129 097.8821 200.8416 0101891 044.7451 316.1880 14.53120052277667
CO-65
1 32785U 08021C   12193.66907155  .00001446  00000-0  18388-3 0 03597
2 32785 097.7979 254.1410 0014256 346.9085 013.1775 14.83046509227392
PRISM
1 33493U 09002B   12194.88338716  .00002628  00000-0  32161-3 0  8739
2 33493 098.1741 336.0632 0018122 209.9930 150.0267 14.84003615187563
SOHLA-1
1 33496U 09002E   12193.94968261  .00000448  00000-0  83078-4 0 07924
2 33496 098.1069 305.5242 0006125 331.5255 028.5613 14.69993282185887
SO-67
1 35870U 09049F   12194.92572961  .00004525  00000-0  18951-3 0  1325
2 35870 097.2310 229.7693 0003997 083.8549 038.1686 15.24017328156535
TISAT-1
1 36799U 10035E   12194.86239897  .00001849  00000-0  23927-3 0  1497
2 36799 098.0615 271.3853 0016493 089.7426 270.5678 14.82040524108298
STUDSAT
1 36801U 10035G   12193.94512700  .00005015  00000-0  60019-3 0 04312
2 36801 098.0693 271.2859 0014197 081.1630 279.1207 14.84526120108190
FO-69
1 37227U 0        12179.46825757  .00000166  00000-0  31335-4 0 02192
2 37227 071.9703 289.2712 0018108 298.3339 061.6016 14.77092260037611
FO-70
1 37380U 0        12179.47554455  .00000208  00000-0  37493-4 0 02230
2 37380 071.9743 289.8278 0018623 295.0880 064.8372 14.76843679037500
ALMASAT-1
1 38078U 12006B   12194.73497806  .00022741  00000-0  61949-3 0  3774
2 38078 069.4903 259.3641 0756903 216.8536 137.8106 14.10013817 21151
XATCOBEO
1 38082U 12006F   12194.60296257  .00055978  00000-0  13425-2 0  3876
2 38082 069.4902 257.1583 0730713 215.6912 139.2955 14.18076002 21197
NOAA-10
1 16969U 86073A   12193.97195535  .00000101  00000-0  58497-4 0 09950
2 16969 098.5799 222.5834 0012452 158.1147 202.0569 14.27562825343407
NOAA-11
1 19531U 88089A   12193.75267111 -.00000170  00000-0 -65341-4 0 09889
2 19531 098.7317 278.3958 0011516 150.2068 209.9759 14.14972400227985
NOAA-12
1 21263U 91032A   12193.96498948  .00000057  00000-0  42919-4 0 04921
2 21263 098.7274 215.5121 0014621 126.8187 233.4337 14.25505971100080
MET-3/5
1 21655U 91056A   12194.82612269 -.00000001  00000-0 -33183-4 0  4555
2 21655 082.5582 134.0780 0012201 256.2547 103.7218 13.17039208  5260
MET-2/21
1 22782U 93055A   12194.53768822 -.00000016  00000-0 -28299-4 0  4696
2 22782 082.5465 012.3952 0024089 081.6493 278.7405 13.83684601952671
OKEAN-4
1 23317U 94066A   12193.91515611  .00001043  00000-0  12263-3 0 09867
2 23317 082.5385 008.0833 0019615 270.9839 088.9128 14.83840658958477
NOAA-14
1 23455U 94089A   12193.95644991  .00000049  00000-0  48867-4 0 09688
2 23455 098.8255 277.1436 0008546 248.3571 111.6690 14.13908074904296
NOAA-15
1 25338U 98030A   12193.77100055  .00000365  00000-0  17423-3 0 03305
2 25338 098.6918 180.4492 0011336 041.7844 318.4185 14.25093402736358
RESURS
1 25394U 98043A   12194.76212420 -.00000002  00000-0  16775-4 0  1342
2 25394 098.3223 181.6549 0001640 125.9501 234.1831 14.24290255728047
FENGYUN1
1 25730U 99025A   12194.76727470  .00001085  00000-0  64285-3 0  6471
2 25730 098.8453 153.3043 0018624 294.8658 065.0577 14.09656679678215
OKEAN-0
1 25860U 99039A   12193.96644578  .00000408  00000-0  69175-4 0 06942
2 25860 097.9374 156.1053 0001366 106.2691 253.8668 14.74237389698227
NOAA-16
1 26536U 00055A   12193.75450587  .00000203  00000-0  13407-3 0 08171
2 26536 099.0920 236.2559 0010715 019.5940 340.5646 14.12757593608508
NOAA-17
1 27453U 02032A   12193.88854791  .00000309  00000-0  15095-3 0 07683
2 27453 098.3350 219.6769 0012848 084.8481 275.4154 14.24457241522277
NOAA-18
1 28654U 05018A   12193.87282602  .00000439  00000-0  26600-3 0 02491
2 28654 099.0471 152.1675 0015272 085.5023 274.7915 14.11672742368045
NOAA-19
1 33591U 09005A   12193.88618826  .00000467  00000-0  28233-3 0 04395
2 33591 098.8633 133.3692 0013493 314.7744 045.2347 14.11360431176493
HUBBLE
1 20580U 90037B   12193.03576048  .00001824  00000-0  12133-3 0   329
2 20580 028.4712 347.4631 0003127 316.5196 043.5274 15.02610750 18329
ISS
1 25544U 98067A   12194.96999841  .00012478  00000-0  18175-3 0  9157
2 25544 051.6411 353.5041 0007507 147.7076 353.7040 15.56107188782025
CO-58
1 28895U 05043F   12193.67573780  .00000698  00000-0  15201-3 0  2238
2 28895 097.9094 058.8676 0019056 076.8021 283.5314 14.60671249357233
FALCON
1 30776U 07006E   12194.81749567  .00004189  00000-0  27125-3 0  3884
2 30776 035.4280 120.2726 0001848 269.0052 091.0465 15.07726910294123
MAST
1 31126U 07012K   12193.92499888  .00000669  00000-0  15912-3 0 05073
2 31126 097.8737 203.5776 0094643 034.1038 326.6194 14.54193664277865
CAPE1
1 31130U 07012P   12194.53258688  .00001010  00000-0  23879-3 0  5147
2 31130 097.8821 200.5164 0102358 045.4934 315.4566 14.52984161277457
COMPASS
1 32787U 08021E   12193.61153704  .00002684  00000-0  32740-3 0 03523
2 32787 097.7977 254.4062 0014644 345.2751 014.8044 14.84102521227431
AAUSAT2
1 32788U 08021F   12194.65432432  .00002267  00000-0  27534-3 0  3440
2 32788 097.7991 255.8215 0014451 342.8555 017.2184 14.84433833227619
DO-64
1 32789U 08021G   12193.86767579  .00004190  00000-0  48494-3 0  3597
2 32789 097.8098 257.1677 0013552 341.7221 018.3572 14.85986722227541
CO-66
1 32791U 08021J   12194.62262455  .00002198  00000-0  27303-3 0  3433
2 32791 097.7977 255.1153 0015267 341.6312 018.4325 14.83505960227514
RS-30
1 32953U 08025A   12194.72408805  .00000010  00000-0  00000 0 0  9538
2 32953 082.5034 279.2598 0017535 250.3552 109.5642 12.43025469187730
TACSAT-3
1 35001U 09028A   12121.72616188  .15204951  73582-5  42606-3 0 00016
2 35001 040.4259 351.8840 0007146 275.2650 085.0693 16.45157000166990
PHARMSAT
1 35002U 09028B   12194.57296414  .00258078  31622-4  68313-3 0  9794
2 35002 040.4550 263.7272 0008508 072.3319 287.8418 15.93775573178360
METEOR-M
1 35865U 09049A   12194.90461606 -.00000011  00000-0  14723-4 0  5831
2 35865 098.6529 248.7464 0002454 000.7354 359.3826 14.21865627146253
RS-38
1 35869U 09049E   12194.85158932  .00000034  00000-0  35022-4 0  5901
2 35869 098.6481 248.6857 0004499 349.8050 010.3034 14.22078083146269
JUGNU
1 37839U 11058B   12193.40903270  .00000620  00000-0  19019-3 0  1843
2 37839 019.9611 211.4844 0019457 127.3951 232.8224 14.12065795 38674
SRMSAT
1 37841U 11058D   12193.28422884  .00000264  00000-0  00000-0 0 01862
2 37841 019.9709 217.6057 0011775 095.1371 265.0402 14.10148422038608
RAX-2
1 37853U 11061D   12194.73831935  .00002815  00000-0  23085-3 0  2283
2 37853 101.7113 246.5598 0246353 278.0641 079.2673 14.80186544 38176
AUBIESAT
1 37854U 11061E   12193.87541563  .00002763  00000-0  22390-3 0 02373
2 37854 101.7127 245.5848 0246779 279.6939 077.6466 14.80575355038048
HRBE
1 37855U 11061F   12193.82395602  .00002414  00000-0  19729-3 0 02386
2 37855 101.7114 245.4585 0247593 280.0760 077.2579 14.80422342038032
RS-39
1 38051U 11062C   12194.96502477  .00007962  00000-0  33017-3 0  5070
2 38051 051.6391 036.9706 0014831 126.6867 034.8031 15.24680811 25909
E-STAR
1 38079U 12006C   12194.60413678  .00046460  00000-0  11129-2 0  3437
2 38079 069.4946 257.5365 0738913 215.9259 138.9763 14.16375344 21181
GOLIAT
1 38085U 12006J   12194.61344988  .00046936  00000-0  11215-2 0  3144
2 38085 069.4922 257.8561 0743845 216.2678 138.5572 14.15373151 21178
HORYU-2
1 38340U 12025D   12193.87553771  .00001291  00000-0  22345-3 0   495
2 38340 098.1757 133.6607 0011806 250.7708 109.3020 14.70029689  8108
/EX




More information about the Keps mailing list